This is the latest recevied weather packets stored in our database for station/object KO4IDC-13. If no packets are shown the sender has not sent any weather packets the latest 10 day(s).
| Time | Temp. | Humidity | Pressure | Rain* | Wind** | Luminosity | Snow |
|---|---|---|---|---|---|---|---|
| 1777980912 | 18.33° C | 65% | 1010.5 hPa | 0 mm | - | 22 W/m² | - |
| 1777980609 | 18.89° C | 65% | 1010.3 hPa | 0 mm | - | 18 W/m² | - |
| 1777980305 | 18.89° C | 64% | 1010.3 hPa | 0 mm | - | 11 W/m² | - |
| 1777980003 | 18.89° C | 64% | 1010.5 hPa | 0 mm | - | 5 W/m² | - |
| 1777979702 | 18.89° C | 65% | 1010.4 hPa | 0 mm | - | 3 W/m² | - |
| 1777979398 | 18.89° C | 64% | 1010.3 hPa | 0 mm | - | 2 W/m² | - |
| 1777979095 | 18.89° C | 64% | 1010.2 hPa | 0 mm | - | 1 W/m² | - |
| 1777978792 | 18.89° C | 64% | 1010.2 hPa | 0 mm | - | 1 W/m² | - |
| 1777978488 | 18.89° C | 64% | 1010.1 hPa | 0 mm | - | 1 W/m² | - |
| 1777978184 | 18.89° C | 64% | 1010.1 hPa | 0 mm | - | 0 W/m² | - |
| 1777977882 | 18.89° C | 63% | 1010 hPa | 0 mm | - | 0 W/m² | - |
| 1777977578 | 18.89° C | 63% | 1010 hPa | 0 mm | - | 0 W/m² | - |
| 1777977276 | 18.89° C | 64% | 1010 hPa | 0 mm | - | 0 W/m² | - |
| 1777976973 | 18.89° C | 63% | 1009.9 hPa | 0 mm | - | 0 W/m² | - |
| 1777976670 | 18.89° C | 64% | 1010 hPa | 0 mm | - | 0 W/m² | - |
| 1777976367 | 18.89° C | 63% | 1009.9 hPa | 0 mm | - | 0 W/m² | - |
| 1777976066 | 18.89° C | 63% | 1010.1 hPa | 0 mm | - | 0 W/m² | - |
| 1777975762 | 18.89° C | 63% | 1010.1 hPa | 0 mm | - | 0 W/m² | - |
| 1777975459 | 18.89° C | 63% | 1010.1 hPa | 0 mm | - | 0 W/m² | - |
| 1777975155 | 18.89° C | 63% | 1010 hPa | 0 mm | - | 0 W/m² | - |
| 1777974852 | 18.89° C | 63% | 1010.1 hPa | 0 mm | - | 0 W/m² | - |
| 1777974548 | 18.89° C | 63% | 1010.1 hPa | 0 mm | - | 0 W/m² | - |
| 1777974246 | 18.89° C | 62% | 1010.1 hPa | 0 mm | - | 0 W/m² | - |
| 1777973941 | 18.89° C | 62% | 1010.1 hPa | 0 mm | - | 0 W/m² | - |
| 1777973639 | 18.89° C | 62% | 1010.2 hPa | 0 mm | - | 0 W/m² | - |
* Rain latest hour (hover to see other rain measurements)
** Current wind speed in m/s (hover to see current wind gust speed)